Havre, MT

3:42 PM MST on February 19, 2018 (GMT -0700)
Havre City-County

Weather History for KHVR - April, 2013

Change the Weather History Date:

Wednesday, April 10, 2013

  Actual Average Record
Temperature  
Mean Temperature 34 °F 43 °F  
Max Temperature 57 °F 56 °F 78 °F (1925)
Min Temperature 11 °F 30 °F -1 °F (1940)
Degree Days  
Heating Degree Days 31 22  
Month to date heating degree days 250 238  
Since 1 July heating degree days 7113 7356  
Cooling Degree Days 0 0  
Month to date cooling degree days 0 0  
Year to date cooling degree days 0 0  
Moisture  
Dew Point 19 °F    
Average Humidity 50    
Maximum Humidity 76    
Minimum Humidity 24    
Precipitation  
Precipitation T in 0.03 in 0.71 in (1980)
Month to date precipitation T 0.23  
Year to date precipitation 1.92 1.38  
Snow  
Snow 0.00 in 0.20 in 2.10 in (1940)
Month to date snowfall T 1.5  
Since 1 July snowfall 47.0 35.7  
Snow Depth 0.00 in    
Sea Level Pressure  
Sea Level Pressure 29.97 in    
Wind  
Wind Speed 5 mph (SE)    
Max Wind Speed 18 mph    
Max Gust Speed 26 mph    
Visibility 10 miles    
Events Rain , Snow    
T = Trace of Precipitation, MM = Missing Value Source: NWS Daily Summary

Daily Weather History Graph

Daily Weather History Graph

Search for Another Location

Airport or City:

Trip Planner

Search our weather history database for the weather conditions in past years. The results will help you decide how hot, cold, wet, or windy it might be!

Date:

Astronomy

Apr. 10, 2013 Rise Set
Actual Time 6:37 AM MDT 8:03 PM MDT
Civil Twilight 6:05 AM MDT 8:36 PM MDT
Nautical Twilight 5:25 AM MDT 9:15 PM MDT
Astronomical Twilight 4:43 AM MDT 9:58 PM MDT
Moon 6:33 AM MDT (4/10) 8:48 PM MDT (4/10)
Length of Visible Light 14h 30m
Length of Day
13h 25m
New Moon, 0% of the Moon is Illuminated
Apr 10
New Moon
Apr 18
First Quarter
Apr 25
Full
May 2
Last Quarter
May 9
New

Hourly Weather History & Observations

Time (MDT) Temp. Windchill Dew Point Humidity Pressure Visibility Wind Dir Wind Speed Gust Speed Precip Events Conditions
12:53 AM 25.0 °F 20.7 °F 5.0 °F 43% 30.31 in 9.0 mi ESE 3.5 mph - 0.00 in Snow Light Snow
1:53 AM 16.0 °F 10.4 °F 7.0 °F 68% 30.30 in 10.0 mi SE 3.5 mph - 0.00 in   Clear
2:53 AM 19.9 °F 14.9 °F 7.0 °F 57% 30.27 in 10.0 mi ENE 3.5 mph - 0.00 in   Clear
3:53 AM 18.0 °F 12.7 °F 8.1 °F 65% 30.24 in 10.0 mi ENE 3.5 mph - N/A   Clear
4:53 AM 17.1 °F 10.0 °F 5.0 °F 59% 30.21 in 10.0 mi East 4.6 mph - N/A   Clear
5:53 AM 15.1 °F - 6.1 °F 68% 30.20 in 10.0 mi Calm Calm - 0.00 in   Clear
6:53 AM 14.0 °F - 7.0 °F 74% 30.20 in 10.0 mi Calm Calm - N/A   Clear
7:53 AM 21.9 °F 15.7 °F 10.0 °F 60% 30.18 in 9.0 mi NE 4.6 mph - 0.00 in Snow Light Snow
8:53 AM 26.1 °F - 10.9 °F 53% 30.15 in 10.0 mi Calm Calm - 0.00 in   Clear
9:53 AM 32.0 °F 28.7 °F 12.0 °F 44% 30.14 in 10.0 mi NW 3.5 mph - N/A   Clear
10:53 AM 37.4 °F 34.9 °F 12.2 °F 36% 30.01 in 10.0 mi NNW 3.5 mph - N/A   Clear
11:53 AM 44.1 °F 42.5 °F 12.9 °F 28% 30.02 in 10.0 mi Variable 3.5 mph - N/A   Clear
12:53 PM 48.9 °F - 16.0 °F 27% 29.97 in 10.0 mi South 3.5 mph - N/A   Clear
1:53 PM 53.1 °F - 18.0 °F 25% 29.92 in 10.0 mi WSW 8.1 mph 21.9 mph N/A   Clear
2:53 PM 55.0 °F - 21.0 °F 27% 29.88 in 10.0 mi South 13.8 mph 19.6 mph N/A   Clear
3:53 PM 55.9 °F - 24.1 °F 29% 29.85 in 10.0 mi SSW 15.0 mph 19.6 mph N/A   Clear
4:53 PM 55.9 °F - 26.1 °F 32% 29.80 in 10.0 mi SSW 6.9 mph - N/A   Clear
5:53 PM 57.0 °F - 28.0 °F 33% 29.76 in 10.0 mi SE 5.8 mph - N/A   Partly Cloudy
6:53 PM 55.0 °F - 28.9 °F 37% 29.72 in 10.0 mi NE 5.8 mph - N/A   Overcast
7:53 PM 51.1 °F - 28.9 °F 43% 29.71 in 10.0 mi WSW 3.5 mph - N/A   Overcast
8:53 PM 51.1 °F - 33.1 °F 50% 29.70 in 10.0 mi West 4.6 mph - 0.00 in Rain Light Rain
9:53 PM 48.9 °F - 35.1 °F 59% 29.69 in 10.0 mi Variable 4.6 mph - 0.00 in   Overcast
10:53 PM 45.0 °F - 37.9 °F 76% 29.69 in 10.0 mi Calm Calm - 0.00 in   Overcast
11:53 PM 43.0 °F 40.3 °F 36.0 °F 76% 29.68 in 10.0 mi NNW 4.6 mph - 0.00 in   Overcast